TimeAKDT,TemperatureF,Dew PointF,Humidity,Sea Level PressureIn,VisibilityMPH,Wind Direction,Wind SpeedMPH,Gust SpeedMPH,PrecipitationIn,Events,Conditions,WindDirDegrees,DateUTC
12:16 AM,48.2,46.4,93,29.26,10.0,NE,13.8,21.9,N/A,,Overcast,50,2012-10-12 08:16:00
12:36 AM,48.2,46.4,93,29.25,7.0,NE,8.1,19.6,N/A,,Overcast,40,2012-10-12 08:36:00
12:56 AM,48.2,46.4,93,29.25,10.0,ENE,10.4,25.3,N/A,,Overcast,60,2012-10-12 08:56:00
1:16 AM,48.2,46.4,93,29.24,8.0,NE,10.4,21.9,N/A,,Overcast,40,2012-10-12 09:16:00
1:36 AM,46.4,46.4,100,29.24,7.0,NE,11.5,21.9,N/A,,Overcast,40,2012-10-12 09:36:00
1:56 AM,46.4,46.4,100,29.24,8.0,NE,12.7,20.7,N/A,,Overcast,40,2012-10-12 09:56:00
2:16 AM,48.2,46.4,93,29.23,10.0,NE,8.1,20.7,N/A,,Overcast,50,2012-10-12 10:16:00
2:36 AM,48.2,46.4,93,29.22,10.0,NE,10.4,19.6,N/A,,Overcast,40,2012-10-12 10:36:00
2:56 AM,48.2,46.4,93,29.22,10.0,NNE,16.1,24.2,N/A,,Overcast,30,2012-10-12 10:56:00
3:16 AM,46.4,46.4,100,29.21,9.0,NNE,10.4,20.7,N/A,,Overcast,30,2012-10-12 11:16:00
3:36 AM,46.4,46.4,100,29.21,10.0,ENE,10.4,19.6,N/A,,Overcast,70,2012-10-12 11:36:00
3:56 AM,48.2,46.4,93,29.20,10.0,NE,10.4,29.9,N/A,,Overcast,40,2012-10-12 11:56:00
4:16 AM,48.2,44.6,87,29.20,10.0,NE,11.5,24.2,N/A,,Overcast,40,2012-10-12 12:16:00
4:36 AM,48.2,44.6,87,29.19,10.0,NE,6.9,23.0,N/A,,Overcast,50,2012-10-12 12:36:00
4:56 AM,46.4,46.4,100,29.18,8.0,NNE,9.2,24.2,N/A,,Overcast,30,2012-10-12 12:56:00
5:16 AM,48.2,44.6,87,29.18,10.0,NE,8.1,19.6,N/A,,Overcast,40,2012-10-12 13:16:00
5:36 AM,48.2,44.6,87,29.17,10.0,NNE,12.7,18.4,N/A,,Overcast,30,2012-10-12 13:36:00
5:56 AM,48.2,44.6,87,29.16,10.0,NNE,13.8,23.0,N/A,,Overcast,30,2012-10-12 13:56:00
6:16 AM,46.4,44.6,93,29.16,10.0,NNE,11.5,19.6,N/A,,Overcast,30,2012-10-12 14:16:00
6:36 AM,46.4,44.6,93,29.16,10.0,NNE,12.7,19.6,N/A,,Overcast,30,2012-10-12 14:36:00
6:56 AM,48.2,44.6,87,29.15,10.0,NNE,8.1,16.1,N/A,,Overcast,30,2012-10-12 14:56:00
7:16 AM,48.2,44.6,87,29.15,10.0,NNE,12.7,24.2,N/A,,Overcast,30,2012-10-12 15:16:00
7:36 AM,48.2,44.6,87,29.15,10.0,NNE,10.4,18.4,N/A,,Overcast,30,2012-10-12 15:36:00
7:56 AM,46.4,44.6,93,29.15,10.0,NNE,6.9,-,N/A,,Overcast,30,2012-10-12 15:56:00
8:16 AM,46.4,44.6,93,29.15,10.0,NNE,8.1,-,N/A,,Overcast,30,2012-10-12 16:16:00
8:36 AM,46.4,46.4,100,29.14,10.0,NNE,8.1,-,N/A,,Overcast,30,2012-10-12 16:36:00
8:56 AM,46.4,46.4,100,29.14,10.0,NNE,8.1,-,N/A,,Overcast,30,2012-10-12 16:56:00
9:16 AM,46.4,46.4,100,29.14,10.0,NNE,6.9,-,N/A,,Overcast,30,2012-10-12 17:16:00
9:36 AM,46.4,46.4,100,29.14,10.0,NE,4.6,-,N/A,,Overcast,40,2012-10-12 17:36:00
9:56 AM,46.4,46.4,100,29.14,10.0,NE,5.8,-,N/A,,Mostly Cloudy,40,2012-10-12 17:56:00
11:16 AM,48.2,44.6,87,29.14,10.0,NNE,8.1,-,N/A,,Overcast,20,2012-10-12 19:16:00
11:36 AM,48.2,46.4,93,29.14,10.0,North,4.6,-,N/A,,Overcast,10,2012-10-12 19:36:00
11:56 AM,48.2,46.4,93,29.14,10.0,NNE,5.8,-,N/A,,Mostly Cloudy,20,2012-10-12 19:56:00
12:16 PM,48.2,46.4,93,29.13,10.0,NNE,5.8,-,N/A,,Mostly Cloudy,20,2012-10-12 20:16:00
12:56 PM,51.8,46.4,82,29.13,10.0,NNW,5.8,-,N/A,,Mostly Cloudy,330,2012-10-12 20:56:00
1:16 PM,50.0,46.4,87,29.13,10.0,North,5.8,-,N/A,,Mostly Cloudy,350,2012-10-12 21:16:00
1:36 PM,50.0,46.4,87,29.13,10.0,North,4.6,-,N/A,,Mostly Cloudy,360,2012-10-12 21:36:00
1:56 PM,50.0,44.6,82,29.12,10.0,NNE,5.8,-,N/A,,Mostly Cloudy,20,2012-10-12 21:56:00
2:16 PM,50.0,46.4,87,29.12,10.0,NNE,5.8,-,N/A,,Mostly Cloudy,20,2012-10-12 22:16:00
2:36 PM,50.0,46.4,87,29.11,10.0,NNE,6.9,-,N/A,,Mostly Cloudy,20,2012-10-12 22:36:00
2:56 PM,50.0,46.4,87,29.11,10.0,North,5.8,-,N/A,,Overcast,360,2012-10-12 22:56:00
3:16 PM,50.0,46.4,87,29.11,10.0,North,5.8,-,N/A,,Overcast,360,2012-10-12 23:16:00
3:36 PM,50.0,46.4,87,29.10,10.0,NNW,5.8,-,N/A,,Overcast,340,2012-10-12 23:36:00
3:56 PM,50.0,46.4,87,29.10,10.0,NNE,6.9,-,N/A,,Overcast,20,2012-10-12 23:56:00
4:16 PM,50.0,46.4,87,29.09,10.0,North,4.6,-,N/A,,Overcast,10,2012-10-13 00:16:00
4:36 PM,50.0,44.6,82,29.09,10.0,North,9.2,-,N/A,,Overcast,360,2012-10-13 00:36:00
4:56 PM,50.0,44.6,82,29.08,10.0,North,10.4,-,N/A,,Overcast,350,2012-10-13 00:56:00
5:16 PM,50.0,44.6,82,29.08,10.0,North,11.5,-,N/A,,Overcast,350,2012-10-13 01:16:00
5:36 PM,48.2,44.6,87,29.08,10.0,North,11.5,-,N/A,,Overcast,350,2012-10-13 01:36:00
5:56 PM,48.2,44.6,87,29.07,10.0,North,15.0,-,N/A,,Overcast,350,2012-10-13 01:56:00
6:16 PM,48.2,44.6,87,29.07,10.0,North,17.3,21.9,N/A,,Overcast,350,2012-10-13 02:16:00
6:36 PM,48.2,42.8,82,29.07,10.0,North,16.1,-,N/A,,Overcast,350,2012-10-13 02:36:00
6:56 PM,48.2,42.8,82,29.08,10.0,North,19.6,24.2,N/A,,Overcast,350,2012-10-13 02:56:00
7:16 PM,46.4,41.0,81,29.08,10.0,North,19.6,26.5,N/A,,Overcast,350,2012-10-13 03:16:00
7:36 PM,46.4,41.0,81,29.08,10.0,NNW,21.9,-,N/A,,Overcast,340,2012-10-13 03:36:00
7:56 PM,46.4,41.0,81,29.08,10.0,NNW,19.6,-,N/A,,Overcast,340,2012-10-13 03:56:00
8:16 PM,46.4,39.2,76,29.09,10.0,NNW,17.3,-,N/A,,Overcast,340,2012-10-13 04:16:00
8:36 PM,44.6,39.2,81,29.09,10.0,NNW,18.4,-,N/A,,Overcast,340,2012-10-13 04:36:00
8:56 PM,44.6,39.2,81,29.09,10.0,North,20.7,25.3,N/A,,Mostly Cloudy,350,2012-10-13 04:56:00
9:16 PM,44.6,39.2,81,29.09,10.0,North,20.7,25.3,N/A,,Clear,350,2012-10-13 05:16:00
9:56 PM,42.8,37.4,81,29.09,10.0,North,24.2,29.9,N/A,,Clear,350,2012-10-13 05:56:00
10:16 PM,42.8,37.4,81,29.10,10.0,North,20.7,-,N/A,,Clear,350,2012-10-13 06:16:00
10:36 PM,42.8,37.4,81,29.10,10.0,NNW,18.4,-,N/A,,Clear,340,2012-10-13 06:36:00
10:56 PM,42.8,37.4,81,29.10,10.0,North,19.6,-,N/A,,Clear,350,2012-10-13 06:56:00
11:16 PM,44.6,35.6,71,29.10,10.0,North,15.0,24.2,N/A,,Clear,350,2012-10-13 07:16:00
11:36 PM,42.8,35.6,76,29.10,10.0,North,18.4,-,N/A,,Clear,350,2012-10-13 07:36:00
11:56 PM,42.8,35.6,76,29.10,10.0,North,18.4,-,N/A,,Clear,350,2012-10-13 07:56:00